Weather History for KHDC - April, 2014

Change the Weather History Date:

Saturday, April 19, 2014

  Actual Average (KMSY) Record (KMSY)
Temperature  
Mean Temperature 66 °F -  
Max Temperature 82 °F 79 °F 90 °F (1987)
Min Temperature 51 °F 60 °F 45 °F (1983)
Cooling Degree Days 2    
Growing Degree Days 16 (Base 50)    
Moisture  
Dew Point 50 °F    
Average Humidity 62    
Maximum Humidity 94    
Minimum Humidity 28    
Precipitation  
Precipitation 0.00 in - - ()
Sea Level Pressure  
Sea Level Pressure 30.14 in    
Wind  
Wind Speed 3 mph (North)    
Max Wind Speed 10 mph    
Max Gust Speed 17 mph    
Visibility 10 miles    
Events      
Averages and records for this station are not official NWS values.
T = Trace of Precipitation, MM = Missing Value Source: NWS Daily Summary

Daily Weather History Graph

Daily Weather History Graph

Search for Another Location

Airport or City:

Trip Planner

Search our weather history database for the weather conditions in past years. The results will help you decide how hot, cold, wet, or windy it might be!

Date:

Astronomy

Apr. 19, 2014 Rise Set
Actual Time 6:29 AM CDT 7:32 PM CDT
Civil Twilight 6:05 AM CDT 7:56 PM CDT
Nautical Twilight 5:35 AM CDT 8:26 PM CDT
Astronomical Twilight 5:05 AM CDT 8:56 PM CDT
Moon No Moon Rise 9:57 AM CDT (4/19)
Length of Visible Light 13h 51m
Length of Day
13h 02m
Waning Gibbous, 78% of the Moon is Illuminated
Apr 19
Waning Gibbous
Apr 22
Last Quarter
Apr 29
New
May 6
First Quarter
May 14
Full

Hourly Weather History & Observations

Time (CDT) Temp. Dew Point Humidity Pressure Visibility Wind Dir Wind Speed Gust Speed Precip Events Conditions
12:15 AM 55.4 °F 51.8 °F 88% 30.19 in 10.0 mi Calm Calm - N/A   Clear
12:35 AM 57.2 °F 53.6 °F 88% 30.18 in 10.0 mi NNE 3.5 mph - N/A   Clear
12:55 AM 59.0 °F 53.6 °F 82% 30.18 in 10.0 mi Calm Calm - N/A   Clear
1:15 AM 59.0 °F 53.6 °F 82% 30.16 in 10.0 mi NE 4.6 mph - N/A   Clear
1:35 AM 57.2 °F 51.8 °F 82% 30.15 in 10.0 mi NE 6.9 mph - N/A   Clear
1:55 AM 57.2 °F 51.8 °F 82% 30.15 in 10.0 mi NNE 4.6 mph - N/A   Clear
2:15 AM 57.2 °F 51.8 °F 82% 30.15 in 10.0 mi NE 4.6 mph - N/A   Clear
2:35 AM 57.2 °F 51.8 °F 82% 30.14 in 10.0 mi NNE 4.6 mph - N/A   Clear
2:55 AM 57.2 °F 51.8 °F 82% 30.13 in 10.0 mi NNE 4.6 mph - N/A   Clear
3:15 AM 55.4 °F 51.8 °F 88% 30.13 in 10.0 mi North 3.5 mph - N/A   Clear
3:35 AM 55.4 °F 50.0 °F 82% 30.13 in 10.0 mi Calm Calm - N/A   Clear
3:55 AM 53.6 °F 50.0 °F 88% 30.13 in 10.0 mi Calm Calm - N/A   Clear
4:15 AM 53.6 °F 50.0 °F 88% 30.13 in 10.0 mi Calm Calm - N/A   Clear
4:35 AM 53.6 °F 50.0 °F 88% 30.14 in 10.0 mi West 4.6 mph - N/A   Clear
4:55 AM 53.6 °F 50.0 °F 88% 30.15 in 10.0 mi Calm Calm - N/A   Clear
5:15 AM 53.6 °F 50.0 °F 88% 30.15 in 10.0 mi Calm Calm - N/A   Clear
5:35 AM 51.8 °F 50.0 °F 94% 30.15 in 10.0 mi Calm Calm - N/A   Clear
5:55 AM 53.6 °F 50.0 °F 88% 30.15 in 10.0 mi Calm Calm - N/A   Clear
6:15 AM 51.8 °F 48.2 °F 88% 30.16 in 10.0 mi North 3.5 mph - N/A   Clear
6:35 AM 51.8 °F 48.2 °F 88% 30.16 in 10.0 mi North 3.5 mph - N/A   Clear
6:55 AM 51.8 °F 48.2 °F 88% 30.18 in 10.0 mi Calm Calm - N/A   Clear
7:15 AM 53.6 °F 50.0 °F 88% 30.18 in 10.0 mi Calm Calm - N/A   Clear
7:35 AM 53.6 °F 51.8 °F 94% 30.18 in 10.0 mi Calm Calm - N/A   Clear
7:55 AM 57.2 °F 51.8 °F 82% 30.17 in 10.0 mi North 4.6 mph - N/A   Clear
8:15 AM 59.0 °F 51.8 °F 77% 30.17 in 10.0 mi North 3.5 mph - N/A   Clear
8:35 AM 60.8 °F 51.8 °F 72% 30.17 in 10.0 mi North 3.5 mph - N/A   Clear
8:55 AM 64.4 °F 51.8 °F 64% 30.18 in 10.0 mi NNE 5.8 mph - N/A   Clear
9:15 AM 66.2 °F 50.0 °F 56% 30.18 in 10.0 mi ENE 4.6 mph - N/A   Clear
9:35 AM 66.2 °F 50.0 °F 56% 30.19 in 10.0 mi North 3.5 mph - N/A   Clear
9:55 AM 69.8 °F 50.0 °F 49% 30.19 in 10.0 mi NNE 6.9 mph - N/A   Clear
10:15 AM 69.8 °F 50.0 °F 49% 30.19 in 10.0 mi ENE 4.6 mph - N/A   Clear
10:35 AM 71.6 °F 50.0 °F 46% 30.19 in 10.0 mi NNE 6.9 mph - N/A   Clear
10:55 AM 71.6 °F 48.2 °F 43% 30.19 in 10.0 mi North 5.8 mph - N/A   Clear
11:15 AM 73.4 °F 46.4 °F 38% 30.18 in 10.0 mi NE 3.5 mph - N/A   Clear
11:35 AM 73.4 °F 46.4 °F 38% 30.18 in 10.0 mi NNE 6.9 mph - N/A   Clear
12:15 PM 75.2 °F 46.4 °F 36% 30.18 in 10.0 mi NNW 10.4 mph - N/A   Clear
12:35 PM 77.0 °F 46.4 °F 34% 30.17 in 10.0 mi NW 6.9 mph 17.3 mph N/A   Clear
12:55 PM 77.0 °F 46.4 °F 34% 30.16 in 10.0 mi North 8.1 mph - N/A   Clear
1:15 PM 77.0 °F 46.4 °F 34% 30.15 in 10.0 mi NE 9.2 mph - N/A   Clear
1:35 PM 78.8 °F 46.4 °F 32% 30.15 in 10.0 mi NW 8.1 mph - N/A   Clear
1:55 PM 78.8 °F 44.6 °F 30% 30.15 in 10.0 mi North 8.1 mph - N/A   Clear
2:15 PM 78.8 °F 46.4 °F 32% 30.14 in 10.0 mi NE 3.5 mph - N/A   Clear
2:35 PM 78.8 °F 44.6 °F 30% 30.13 in 10.0 mi North 5.8 mph 16.1 mph N/A   Clear
2:55 PM 80.6 °F 46.4 °F 30% 30.12 in 10.0 mi NNE 8.1 mph 12.7 mph N/A   Clear
3:15 PM 80.6 °F 46.4 °F 30% 30.11 in 10.0 mi North 9.2 mph - N/A   Clear
3:35 PM 80.6 °F 46.4 °F 30% 30.11 in 10.0 mi NNW 10.4 mph - N/A   Clear
3:55 PM 82.4 °F 46.4 °F 28% 30.10 in 10.0 mi NNW 3.5 mph - N/A   Clear
4:15 PM 80.6 °F 44.6 °F 28% 30.09 in 10.0 mi Calm Calm - N/A   Clear
4:35 PM 80.6 °F 46.4 °F 30% 30.09 in 10.0 mi North 10.4 mph - N/A   Clear
4:55 PM 80.6 °F 46.4 °F 30% 30.09 in 10.0 mi North 9.2 mph - N/A   Clear
5:15 PM 80.6 °F 46.4 °F 30% 30.09 in 10.0 mi North 9.2 mph - N/A   Clear
5:35 PM 80.6 °F 46.4 °F 30% 30.09 in 10.0 mi North 8.1 mph - N/A   Clear
5:55 PM 80.6 °F 46.4 °F 30% 30.09 in 10.0 mi NNW 9.2 mph - N/A   Clear
6:15 PM 78.8 °F 48.2 °F 34% 30.09 in 10.0 mi NNW 8.1 mph - N/A   Clear
6:35 PM 78.8 °F 48.2 °F 34% 30.10 in 10.0 mi NNW 6.9 mph - N/A   Clear
6:55 PM 77.0 °F 51.8 °F 41% 30.10 in 10.0 mi Calm Calm - N/A   Clear
7:15 PM 73.4 °F 51.8 °F 47% 30.11 in 10.0 mi Calm Calm - N/A   Clear
7:35 PM 71.6 °F 51.8 °F 50% 30.11 in 10.0 mi Calm Calm - N/A   Clear
7:55 PM 69.8 °F 51.8 °F 53% 30.11 in 10.0 mi Calm Calm - N/A   Clear
8:15 PM 66.2 °F 53.6 °F 64% 30.12 in 10.0 mi Calm Calm - N/A   Clear
8:35 PM 64.4 °F 55.4 °F 73% 30.13 in 10.0 mi Calm Calm - N/A   Clear
8:55 PM 62.6 °F 55.4 °F 77% 30.13 in 10.0 mi Calm Calm - N/A   Clear
9:15 PM 64.4 °F 53.6 °F 68% 30.14 in 10.0 mi Calm Calm - N/A   Clear
9:35 PM 60.8 °F 53.6 °F 77% 30.14 in 10.0 mi Calm Calm - N/A   Clear
9:55 PM 59.0 °F 53.6 °F 82% 30.14 in 10.0 mi Calm Calm - N/A   Clear
10:15 PM 59.0 °F 53.6 °F 82% 30.15 in 10.0 mi Calm Calm - N/A   Clear
10:35 PM 60.8 °F 55.4 °F 82% 30.15 in 10.0 mi Calm Calm - N/A   Clear
10:55 PM 60.8 °F 53.6 °F 77% 30.14 in 10.0 mi Calm Calm - N/A   Clear
11:15 PM 59.0 °F 53.6 °F 82% 30.14 in 7.0 mi Calm Calm - N/A   Clear
11:35 PM 57.2 °F 53.6 °F 88% 30.14 in 7.0 mi Calm Calm - N/A   Clear
11:55 PM 57.2 °F 53.6 °F 88% 30.13 in 7.0 mi Calm Calm - N/A   Clear